Location: Sankt Niklaus
(46.1771°N, 7.8031°E)
Time: 02:46:02
(UTC+00:00)

Daily predictions for brighter satellites

Satellite Brightness Start Highest point End
(mag) Time Altitude Azimuth Time Altitude Azimuth Time Altitude Azimuth
Cosmos 1758 4.0 00:00:05 10° NNW 00:03:41 41° W 00:03:41 41° W
NOSS 2-2 (D) 4.3 00:01:41 10° NW 00:06:46 83° NE 00:11:38 21° SE
Cosmos 1867 3.7 00:05:02 41° SW 00:06:58 72° NW 00:12:28 10° NNE
Cosmos 1461 3.4 00:03:01 10° NW 00:06:31 46° W 00:06:31 46° W
Cosmos 2221 Rocket 3.9 00:06:47 48° WSW 00:07:22 52° WNW 00:11:42 10° N
Cosmos 1674 Rocket 3.4 00:06:55 67° SW 00:07:22 75° W 00:11:43 10° N
Cosmos 2298 Rocket 4.0 00:07:41 52° S 00:08:57 74° ESE 00:14:16 10° NNE
Cosmos 1674 3.5 00:10:52 39° WNW 00:10:52 39° WNW 00:14:25 10° N
USA 306 3.1 00:11:52 52° ESE 00:11:52 52° ESE 00:15:33 10° ENE
Cosmos 1238 Rocket 3.8 00:10:19 10° NNW 00:12:06 28° NW 00:12:06 28° NW
Thor Agena Rocket 4.2 00:08:51 10° NNE 00:13:56 45° E 00:15:34 35° SE
ATLAS CENTAUR R/B 3.3 00:11:13 10° WNW 00:13:59 21° W 00:13:59 21° W
USA 307 3.2 00:15:20 48° ESE 00:15:20 48° ESE 00:19:00 10° ENE
SL-16 R/B 3.8 00:16:08 18° SE 00:18:11 22° E 00:22:24 10° NE
ERBS 3.9 00:22:52 24° E 00:22:52 24° E 00:24:24 10° ENE
Cosmos 1980 3.7 00:20:38 46° S 00:22:19 72° ESE 00:27:57 10° NNE
Cosmos 1378 Rocket 3.8 00:22:19 49° WSW 00:22:59 55° WNW 00:27:21 10° N
Cosmos 2333 Rocket 3.7 00:19:42 16° WSW 00:23:19 30° NW 00:28:17 10° N
ATLAS 5 CENTAUR R/B 2.7 00:12:01 10° NW 00:23:29 63° WSW 00:24:40 47° S
CZ-4C R/B 3.2 00:16:54 10° NW 00:24:06 55° WSW 00:27:53 32° S
Cosmos 1455 Rocket 4.0 00:20:07 10° N 00:24:22 42° ENE 00:26:10 28° SE
USA 215 4.2 00:20:14 10° NE 00:26:25 46° NNW 00:32:36 10° W
Cosmos 332 Rocket 4.1 00:28:23 43° SSE 00:29:28 53° ESE 00:34:09 10° NNE
NOSS 0 Rocket 3.9 00:29:22 38° SW 00:31:56 82° WNW 00:38:14 10° NNE
USA 32 4.0 00:35:15 45° S 00:36:55 86° W 00:42:13 10° N
Meteor 2-10 Rocket 3.6 00:33:10 10° N 00:38:52 83° E 00:41:17 35° SSE
Cosmos 1975 Rocket 3.4 00:39:39 42° SSE 00:40:50 58° E 00:45:13 10° NNE
Cosmos 1745 Rocket 4.4 00:36:31 10° NNW 00:42:26 48° W 00:44:35 34° SW
ADEOS Rocket 4.4 00:42:18 18° WSW 00:43:30 19° W 00:47:35 10° NW
Cosmos 839 Rocket 4.2 00:38:03 10° NW 00:44:23 67° WSW 00:49:11 23° SSE
USA 308 2.7 00:44:46 60° SW 00:45:29 83° SE 00:49:41 10° ENE
Cosmos 2219 Rocket 3.8 00:42:57 14° W 00:46:39 26° NW 00:51:19 10° N
Cosmos 1025 Rocket 3.4 00:47:03 39° SSE 00:48:19 55° E 00:52:32 10° NNE
Cosmos 1455 4.0 00:47:14 10° NNE 00:50:26 27° ENE 00:52:37 16° ESE
Cosmos 1269 Rocket 4.3 00:45:58 10° NNW 00:51:14 64° ENE 00:55:07 18° SE
GP-B 3.2 00:52:35 10° N 00:57:00 64° W 00:58:07 46° SW
Meteor 2-5 Rocket 3.9 00:55:38 32° S 00:58:23 70° E 01:04:03 10° NNE
CZ-2D R/B 2.4 00:54:35 10° NNE 00:59:55 59° E 01:02:28 30° S
Lacrosse 5 2.3 00:58:31 37° S 00:59:55 46° SE 01:04:48 10° ENE
Cosmos 1300 3.2 00:57:45 10° NNW 01:01:19 40° W 01:01:27 40° W
USA 267 4.0 01:02:15 28° SW 01:02:38 28° SW 01:08:08 10° WNW
SL-14 R/B 4.4 01:02:27 29° W 01:03:01 30° WNW 01:06:30 10° N
Cosmos 371 Rocket 4.2 01:06:03 27° WSW 01:08:02 38° WNW 01:12:35 10° N
USA 305 3.2 01:07:08 30° W 01:08:59 62° NNW 01:13:09 10° NE
Cosmos 1544 Rocket 3.8 01:06:22 10° N 01:10:48 67° E 01:13:10 26° SSE
USA 229 DEB 4.3 01:04:24 10° NW 01:11:18 42° WSW 01:15:06 26° SSW
USA 229 4.3 01:04:30 10° NW 01:11:24 42° WSW 01:15:15 26° SSW
BREEZE-M DEB (TANK) 4.4 00:55:45 10° WSW 01:12:18 82° NNW 01:16:34 10° ENE
Cosmos 2237 Rocket 2.7 01:11:28 27° WSW 01:14:21 52° WNW 01:19:56 10° NNE
COSMOS 2428 4.5 01:12:17 11° W 01:16:27 23° NW 01:20:57 10° N
AQUA 4.3 01:14:32 10° NNE 01:19:15 56° E 01:21:49 25° S
Cosmos 304 Rocket 4.4 01:17:17 29° WSW 01:19:17 46° WNW 01:23:57 10° N
SL-16 R/B 2.5 01:14:42 17° SSE 01:19:42 88° ENE 01:25:59 10° NNW
Helios 1A 4.1 01:16:54 10° SE 01:20:51 42° ENE 01:24:51 10° N
Lacrosse 5 rocket 1.9 01:21:54 34° SSE 01:22:46 39° SE 01:26:33 10° ENE
SAR-Lupe-2 4.1 01:19:19 10° NNE 01:22:50 51° E 01:24:09 32° SSE
SME Rocket 3.6 01:24:35 35° SW 01:25:35 41° W 01:30:13 10° NNW
Cosmos 1953 4.4 01:24:07 10° NW 01:26:17 14° W 01:26:26 14° W
Cosmos 2074 Rocket 4.0 01:22:43 10° N 01:29:04 88° W 01:33:59 18° S
Resurs 1-4 Rocket 2.1 01:23:50 10° NNE 01:29:07 77° WNW 01:31:56 28° SSW
Cosmos 2297 3.7 01:28:03 10° NNW 01:33:51 85° ENE 01:39:35 10° SSE
Cosmos 1943 Rocket 2.1 01:28:11 10° NNW 01:33:52 77° WSW 01:39:28 10° SSE
Cosmos 1703 4.4 01:35:52 17° SSE 01:38:31 39° E 01:42:12 10° NNE
CRYOSAT 2 4.3 01:38:47 21° S 01:42:06 87° W 01:47:01 10° N
Cosmos 2184 Rocket 4.0 01:37:40 10° NNW 01:43:56 72° W 01:48:45 17° S
Cosmos 2278 Rocket 3.6 01:40:41 10° WNW 01:44:27 19° W 01:45:23 18° WSW
ADEOS II 2.1 01:39:47 10° NNE 01:45:04 80° ESE 01:48:40 21° S
IDEFIX/ARIANE 42P 2.8 01:40:42 10° NNE 01:45:58 69° ESE 01:49:52 18° S
USA 306 4.0 01:47:34 12° W 01:51:10 40° NNW 01:55:09 10° NE
Cosmos 2084 Rocket 3.8 01:49:15 23° WSW 01:51:15 46° NW 01:54:56 10° NNE
Cosmos 292 Rocket 4.0 01:48:10 21° S 01:51:18 64° ESE 01:56:04 10° NNE
USA 307 3.9 01:51:04 12° W 01:54:38 42° NNW 01:58:39 10° NE
ERBS 3.9 01:54:54 14° W 01:56:56 26° NNW 01:59:35 10° NNE
NPP 3.9 01:51:48 10° N 01:57:05 56° WNW 02:00:35 21° SW
Cosmos 2369 Rocket 2.5 01:53:33 10° NNW 01:59:09 69° ENE 02:04:43 10° SE
SL-16 R/B 2.4 01:58:00 21° SW 02:01:47 62° WNW 02:07:26 10° NNE
Cosmos 614 Rocket 3.9 01:57:35 10° NNW 02:02:46 71° WSW 02:07:57 10° SSE
Cosmos 2228 3.2 01:58:23 10° N 02:02:47 75° E 02:07:06 10° SSE
IRS-1D 4.1 01:57:40 10° NNE 02:02:57 59° E 02:07:54 11° S
EO 1 Del DPAF 2.9 01:59:42 10° NNE 02:03:14 81° WNW 02:05:17 23° SSW
Cosmos 2251 Rocket 3.7 01:59:30 10° NNW 02:04:47 76° ENE 02:10:04 10° SSE
Meteor 1-28 Rocket 3.3 02:03:36 20° S 02:05:57 54° W 02:09:38 10° NNW
Cosmos 1656 Rocket 4.0 02:03:07 10° NNW 02:08:33 65° ENE 02:13:55 10° SE
COSMOS 2455 2.9 02:04:48 19° SSW 02:09:18 85° ESE 02:15:23 10° NNE
Cosmos 1536 Rocket 3.8 02:08:03 21° SSW 02:10:52 56° WNW 02:15:12 10° N
COSMOS 2441 4.4 02:13:23 10° NNE 02:18:17 82° ESE 02:22:48 12° SSW
Nadezhda 1 Rocket 4.2 02:15:05 15° SSW 02:20:19 61° WNW 02:26:34 10° N
MSX 3.9 02:17:15 10° NNE 02:23:02 79° WNW 02:28:25 12° SSW
Cosmos 1603 4.3 02:19:53 10° S 02:25:19 53° ESE 02:30:50 10° NE
USA 308 4.3 02:21:37 10° W 02:25:27 34° NNW 02:29:17 10° NE
Cosmos 1455 3.6 02:22:55 10° NW 02:25:46 21° W 02:27:23 16° WSW
MOS 1 Rocket 4.1 02:23:22 17° SW 02:25:48 28° W 02:29:32 10° NW
Cosmos 1271 Rocket 3.4 02:26:14 10° NNW 02:29:46 36° W 02:32:45 13° SSW
Cosmos 1606 Rocket 3.5 02:29:31 10° NNW 02:33:58 78° W 02:38:19 10° S
ALOS 3.5 02:32:56 10° NNE 02:37:20 39° E 02:41:42 10° SSE
CZ-2C R/B 3.6 02:34:38 10° NNE 02:39:31 42° E 02:44:14 10° S
CZ-2D R/B 3.7 02:35:26 10° N 02:39:31 23° WNW 02:43:33 10° WSW
Lacrosse 5 2.7 02:38:02 10° WSW 02:42:57 46° NNW 02:47:52 10° NE
Helios 1B rocket 2.6 02:40:08 10° NNE 02:44:12 74° ESE 02:48:15 10° S
Cosmos 2366 rocket 4.1 02:40:02 10° N 02:46:14 84° E 02:52:26 10° S
Cosmos 2341 Rocket 4.1 02:40:23 10° NNW 02:46:45 70° W 02:53:05 10° S
Meteor 2-1 Rocket 4.3 02:45:37 10° NNW 02:51:19 62° W 02:56:51 10° S
BREEZE-M DEB (TANK) 2.9 02:47:13 11° SW 02:51:34 47° SSE 02:53:51 10° ENE
Cosmos 407 Rocket 3.5 02:47:24 10° NNW 02:52:44 76° WSW 02:57:58 10° SSE
SL-8 Rocket 4.0 02:47:11 10° NNW 02:53:30 74° W 02:59:47 10° S
SL-19 R/B 4.5 02:48:26 10° NNE 02:54:36 77° WNW 03:00:24 10° SSW
Cosmos 1371 Rocket 4.4 02:50:22 10° S 02:55:27 63° ESE 03:00:35 10° NNE
Cosmos 1328 3.9 02:52:39 10° SSW 02:56:32 58° W 03:00:29 10° N
Helios 1A 4.5 02:53:27 10° SW 02:56:32 20° W 02:59:38 10° NW
Cosmos 1943 3.3 02:51:03 10° SSW 02:56:45 82° WNW 03:02:29 10° NNE
Cosmos 2237 Rocket 4.5 02:57:26 10° WNW 02:59:51 13° NW 03:02:15 10° N
Genesis I 3.2 02:56:17 10° NW 03:00:22 78° SW 03:04:20 10° SSE
Lacrosse 5 rocket 2.4 02:58:08 10° W 03:01:50 38° NNW 03:05:45 10° NE
Meteor 1-29 4.1 03:00:09 10° NNE 03:03:15 40° E 03:06:20 10° S
Cosmos 1140 Rocket 3.6 02:58:29 10° NNW 03:03:38 58° WSW 03:08:45 10° S
SL-16 R/B 4.1 03:00:22 10° SW 03:04:05 16° W 03:07:52 10° NW
Resurs 1-4 Rocket 4.2 03:05:44 10° NNW 03:08:04 13° NW 03:10:24 10° W
Lacrosse 4 Rocket 3.2 03:05:20 10° S 03:09:01 28° ESE 03:12:40 10° NE
SeaSat 1 3.6 03:04:29 10° NE 03:09:09 40° ESE 03:13:46 10° S
Cosmos 1892 Rocket 3.8 03:05:57 10° SSW 03:10:19 56° WNW 03:14:45 10° N
IRS-1C 4.3 03:05:45 10° NNE 03:11:07 79° ESE 03:16:27 10° SSW
